Regional Weather Roundup
Issued by NWS Pendleton, OR

Home | Current Version | Previous Version | Text Only | Print | Product List | Glossary On
Versions: 1 2 3 4 5 6 7 8 9 10 11 12 13 14 15 16 17 18 19 20 21 22 23 24 25 26 27 28 29 30 31 32 33 34 35 36 37 38 39 40 41 42 43 44 45 46 47 48 49 50
000
ASUS46 KPDT 042125
RWRPDT
PENDLETON REGIONAL WEATHER ROUNDUP
NATIONAL WEATHER SERVICE PENDLETON OREGON
200 PM PDT FRI SEP 4 2015

NOTE: FAIR INDICATES FEW OR NO CLOUDS BELOW 12,000 FEET WITH NO
SIGNIFICANT WEATHER AND/OR OBSTRUCTIONS TO VISIBILITY.

# INDICATES UNOFFICIAL STATION AND DATA

WAZ520-042210-
EAST SLOPES OF WASHINGTON CASCADES

CITY            SKY/WX      TMP DP  RH  WIND    PRES   REMARKS
#BULLFROG 2SW   N/A         57  38  49  E3      27.54F
#BUMPING DAM    N/A         50  N/A N/A CALM    N/A
#CLE ELUM HS    N/A         59  36  42  NE2     29.88F
#CLIFFDEL 2NW   N/A         63  35  35  SE1     N/A
#GLENWOOD       N/A         62  40  44  CALM    29.88F
#MANASTASH CYN  N/A         58  33  39  NW1     29.89F
#NELSON 3SW     N/A         56  40  55  CALM    30.11S
#NILE           N/A         61  35  38  N2      29.15F
#RONALD 2NW     N/A         57  38  49  NE3     29.81S
#SNOWDEN        N/A         60  24  25  NW2     N/A
#TEANAWAY 4NE   N/A         59  40  49  NW2     N/A
#TROUT LAKE 1NE N/A         60  43  53  CALM    29.88F
$$

WAZ521-042210-
SIMCOE HIGHLANDS

CITY            SKY/WX      TMP DP  RH  WIND    PRES   REMARKS
#BICKLETON HS   N/A         56  27  33  NE8     N/A
#CENTERVILLE 4W N/A         66  39  37  W3      29.63F
#CENTERVILLE 1SWN/A         64  38  38  SW6     29.83F
#GOLDENDALE     N/A         64  36  35  SE2     N/A
#GOLDENDALE 1NE N/A         65  27  24  W3      N/A
#GOLDENDALE 5WNWN/A         65  38  37  E2      29.84F
#GOODNOE HILLS  N/A         71  41  34  SW3     N/A
#LYLE 6NE       N/A         62  38  41  SW9     29.84F
$$

WAZ026-042210-
KITTITAS VALLEY

CITY            SKY/WX      TMP DP  RH  WIND    PRES   REMARKS
ELLENSBURG AP   CLOUDY      66  33  29  NW6     29.90F
#ELLENSBURG CWU N/A         64  36  35  NW6     29.83F
#ELLENSBURG 3NE N/A         61  37  41  CALM    29.91F
#ELLENSBURG 1E  N/A         64  40  41  CALM    N/A
#KITTITAS 4N    N/A         62  37  39  N6      29.89F
#KITTITAS 3S    N/A         61  43  51  CALM    29.87F
#THORP 6N       N/A         58  38  47  N10     29.92F
$$

WAZ027-042210-
YAKIMA VALLEY

CITY            SKY/WX      TMP DP  RH  WIND    PRES   REMARKS
SUNNYSIDE AP    PTCLDY      65  45  48  W9      29.87F
YAKIMA AIRPORT  MOCLDY      67  35  30  W3      29.90F
YAKIMA-VAGABOND LGT RAIN SH 63  39  41  SW6     29.89F THUNDER
#DONALD 2NE     N/A         71  21  15  SW3     28.73F
#GRANDVIEW      N/A         67  41  39  NW3     29.87F
#MABTON         N/A         67  43  42  N5      29.87F
#MOXEE 2E       N/A         66  22  19  W2      29.82F
#NACHES 2SW     N/A         63  39  41  NE2     29.90F
#OUTLOOK DOT    N/A         N/A N/A N/A W12     N/A
#SELAH 8E       N/A         64  33  31  W7      N/A
#TERRACE HTS    N/A         68  41  37  CALM    29.83F
#TOPPENISH      N/A         64  42  45  NW6     29.79F
#WAPATO 4NE     N/A         71  21  15  SW3     28.73F
#W YAKIMA       N/A         65  38  37  E3      29.87F
#WHITE SWAN 5E  N/A         64  43  46  NE2     29.89F
#WILEY CITY 3W  N/A         65  30  27  CALM    29.87F
$$

WAZ028-042210-
LOWER COLUMBIA BASIN...WASHINGTON

CITY            SKY/WX      TMP DP  RH  WIND    PRES   REMARKS
HANFORD         MOCLDY      70  32  24  NW7     29.88F
PASCO           PTCLDY      72  41  33  N9      29.86F
#BENTON CITY    N/A         68  39  35  NE5     29.75F
#CONNELL 5N     N/A         71  34  26  NE6     29.84F
#CONNELL 5NW    N/A         70  43  38  W6      29.81F
#ELTOPIA 6NW    N/A         70  43  38  W3      28.83F
#KAHLOTUS       N/A         68  35  29  SW6     29.83F
#KENNEWICK      N/A         57  38  49  E3      27.54F
#KENNEWICK 3S   N/A         69  42  37  CALM    29.85F
#PASCO-BROADMOORN/A         74  42  32  NE1     29.73F
#PATERSON       N/A         68  42  39  S6      29.83F
#PROSSER        N/A         67  37  33  NW2     29.85F
#SAGEMOOR 2W    N/A         67  43  42  W6      29.69F
#TOUCHET 2S     N/A         67  43  42  W6      29.83F
#WEST PASCO     N/A         72  44  37  N2      29.82F
$$

WAZ029-042210-
FOOTHILLS OF THE BLUES...WASHINGTON

CITY            SKY/WX      TMP DP  RH  WIND    PRES   REMARKS
WALLA WALLA AP  PTCLDY      68  36  31  S5      29.85F
#DAYTON SCHOOL  N/A         67  32  27  NW8     29.83F
#LOWDEN 2SE     N/A         67  44  43  W8      29.80F
#PLEASANT VIEW 1N/A         68  36  31  N1      29.85F
#PRESCOTT       N/A         73  41  31  CALM    29.82F
#SUDBURY        N/A         70  N/A N/A CALM    N/A
#WHITMAN COLLEGEN/A         67  39  36  S3      29.88F
#WAITSBURG 5S   N/A         68  38  33  N6      29.91F
#WAITSBURG 8N   N/A         72  20  14  N8      29.71S
#WALLA WALLA U  N/A         68  43  40  SW7     29.82F
#WHITMAN MISSIONN/A         68  42  39  W5      29.85F
$$

WAZ030-042210-
BLUE MOUNTAINS...WASHINGTON

CITY            SKY/WX      TMP DP  RH  WIND    PRES   REMARKS
#DIXIE 5SE      N/A         59  38  45  NW9     29.80F
#SKI BLUEWOOD   N/A         54  37  52  N6      29.86F
$$

ORZ009-041-WAZ024-042210-
COLUMBIA RIVER GORGE

CITY            SKY/WX      TMP DP  RH  WIND    PRES   REMARKS
THE DALLES AP   PTCLDY      72  33  24  NW9     29.86F
#ARLINGTON AIRPON/A         66  39  37  NE3     29.83S
#MOSIER 1S      N/A         63  28  26  W3      29.90S

$$

ORZ510-042210-
NORTH CENTRAL OREGON

CITY            SKY/WX      TMP DP  RH  WIND    PRES   REMARKS
#CHENOWITH 1W   N/A         62  38  41  W14     N/A
#DUFUR 9E       N/A         60  35  39  S3      29.92F
#GRASS VALLEY 1SN/A         64  38  38  NE1     29.88F
#MAUPIN SCHOOL  N/A         68  38  33  VRB2    29.88F
#MORO SCHOOL    N/A         64  43  46  N1      29.89F
#SHANIKO 4NW    N/A         55  32  41  N9      29.90F
#TYGH VALLEY 2NEN/A         67  38  34  NE7     29.84F
#WAPANITIA AIRPON/A         63  37  38  N1      29.86F
#WASCO AIRPORT  N/A         66  34  30  E6      N/A
#WASCO 5NE      N/A         66  40  38  CALM    29.85F
$$

ORZ511-042210-
CENTRAL OREGON

CITY            SKY/WX      TMP DP  RH  WIND    PRES   REMARKS
BEND AIRPORT    LGT RAIN    50  34  54  W13     29.90R
PRINEVILLE AP   MOCLDY      57  32  38  N10     29.86F
REDMOND AIRPORT CLOUDY      59  32  36  W20G25  29.87F
#BEND 1SW       N/A         44  41  89  N1      N/A
#BEND-AWBREY    N/A         48  38  68  W5      29.88R
#BEND-KIM LN    N/A         50  38  63  W7      29.87R
#CULVER         N/A         57  37  47  W9      29.85S
#LAKE BILLY CHINN/A         52  18  26  W12     29.96R
#MADRAS         N/A         63  36  36  N5      N/A
#POWELL BUTTE 3EN/A         57  40  53  NW7     N/A
#POWELL BUTTE   N/A         63  39  41  N5      29.50F
#PRINEVILLE 3N  N/A         58  40  51  N9      29.79F
#WARM SPRINGS   N/A         60  40  47  S7      29.85S

$$


ORZ509-042210-
EAST SLOPES OF OREGON CASCADES

CITY            SKY/WX      TMP DP  RH  WIND    PRES   REMARKS
#CAMP SHERMAN   N/A         49  41  74  CALM    29.95R
#LA PINE 4NW    N/A         51  36  56  CALM    29.93S
#SISTERS AIRPOR N/A         48  46  93  CALM    30.17S
#SISTERS 1NW    N/A         50  39  66  NE8     N/A
#SISTERS 3N     N/A         44  38  79  CALM    29.99R
#SUNRIVER       N/A         45  42  89  N1      29.79R
#TUMALO 3W      N/A         45  40  82  W7      29.78R

$$

ORZ044-042210-
LOWER COLUMBIA BASIN...OREGON

CITY            SKY/WX      TMP DP  RH  WIND    PRES   REMARKS
HERMISTON       PTCLDY      69  36  30  NE5     29.86F
#BOARDMAN SCHOOLN/A         70  41  35  S1      29.86F
#BOARDMAN 8SW   N/A         68  41  37  N2      29.85F
#ECHO 8SW       N/A         67  40  37  CALM    29.88F
#IONE SCHOOL    N/A         64  38  38  CALM    29.85F
#IRRIGON 4NW    N/A         72  40  31  S6      N/A
#UMATILLA SCHOOLN/A         73  48  41  E1      29.88F
#UMATILLA       N/A         72  38  29  N1      29.77F
$$

ORZ507-042210-
NORTHERN FOOTHILLS OF THE BLUES

CITY            SKY/WX      TMP DP  RH  WIND    PRES   REMARKS
PENDLETON AIRPT MOCLDY      63  36  36  W7      29.86F
#ADAMS 3WNW     N/A         63  38  39  N1      29.86F
#ATHENA         N/A         61  38  42  N1      29.88F
#CAYUSE         N/A         61  40  46  SW6     29.84F
#HELIX SCHOOL   N/A         61  38  42  NE1     29.86F
#HELIX 3N       N/A         61  38  42  CALM    29.85F
#HOLDMAN 5SE    N/A         64  36  35  N2      29.88S
#HOLDMAN 6E     N/A         64  37  37  SE5     29.66F
#M-F GROVE ELEM N/A         65  38  37  W3      29.84F
#M-FREEWATER 5SEN/A         63  43  48  W5      29.86F
#PENDLETON DNTN N/A         66  38  36  SW1     29.90S
#PDT AQUATIC CTRN/A         63  40  43  SW6     29.83F
#PDT SUNRIDGE   N/A         63  39  41  SW6     29.88F
#PENDLETON 7NW  N/A         65  44  46  CALM    28.84R
#PILOT ROCK     N/A         59  38  45  N1      29.91S
#TUTUILLA       N/A         63  40  43  W1      29.87F
#UMAPINE 2E     N/A         64  45  50  SW6     29.82F
#WESTON SCHOOL  N/A         60  36  41  NE1     29.80F

$$

ORZ508-042210-
SOUTHERN FOOTHILLS OF THE BLUES

CITY            SKY/WX      TMP DP  RH  WIND    PRES   REMARKS
#AJAX           N/A         62  33  34  N6      29.83F
#CONDON 5W      N/A         52  34  50  NE6     29.87
#FOSSIL SCHOOL  N/A         66  51  58  CALM    29.94S
#HEPPNER EOC    N/A         59  39  47  W2      29.80F
#HEPPNER 4NE    N/A         56  38  51  N1      29.87F
#LEXINGTON 2SE  N/A         63  39  41  CALM    29.86F
#OLEX 4N        N/A         63  38  39  E3      29.87F
#RUGGS 5NE      N/A         58  37  45  N6      30.07F
#RUGGS 2SW      N/A         56  37  49  N1      29.89F

$$

ORZ502-503-042210-
BLUE MOUNTAINS

CITY            SKY/WX      TMP DP  RH  WIND    PRES   REMARKS
MEACHAM         CLOUDY      53  35  50  VRB3    29.89F
#HEPPNER 15SE   N/A         49  41  74  CALM    29.80F
#LONG CREEK HS  N/A         45  44  96  CALM    29.89R
#PIKES PEAK     N/A         54  36  50  W6      27.99S
#TOLLGATE       N/A         46  37  71  W2      29.78S
#TROY SCHOOL    N/A         71  42  35  SW2     29.63F
#UKIAH          N/A         52  39  61  SW1     29.95R
#WESTON 4E      N/A         54  38  55  N1      29.80S
$$

ORZ505-042210-
JOHN DAY BASIN

CITY            SKY/WX      TMP DP  RH  WIND    PRES   REMARKS
JOHN DAY        LGT DRIZZLE 46  40  79  CALM    29.93F
#JOHN DAY KJDY  N/A         48  47  96  CALM    29.96R
#DAYVILLE SCHOOLN/A         48  42  80  CALM    29.90R
#MITCHELL       N/A         56  40  55  CALM    30.05F
#MITCHELL 8NW   N/A         54  35  48  N3      30.05F
#MONUMENT HS    N/A         50  41  71  CALM    29.93S
#MT. VERNON 5SE N/A         43  40  89  CALM    29.88S
#SPRAY SCHOOL   N/A         56  N/A N/A SE8     N/A
$$

ORZ506-042210-
OCHOCO AND JOHN DAY HIGHLANDS

CITY            SKY/WX      TMP DP  RH  WIND    PRES   REMARKS
#PAULINA SCHOOL N/A         54  36  50  NE8     29.85F
#PINE MTN OBS   N/A         40  33  76  NW6     N/A
#PRAIRIE CITY   N/A         44  41  89  CALM    29.98F
#SENECA         N/A         42  N/A N/A N2      N/A
#SENECA 9NW     N/A         41  39  93  CALM    29.90R
$$

ORZ049-042210-
GRANDE RONDE VALLEY

CITY            SKY/WX      TMP DP  RH  WIND    PRES   REMARKS
LA GRANDE       PTCLDY      61  32  33  W22G29  29.83F
#COVE           N/A         61  43  51  W2      29.85F
#COVE SCHOOL    N/A         62  41  46  CALM    29.86F
#ELGIN 3N       N/A         65  34  31  W1      29.80F
#ELGIN 1E       N/A         66  35  32  W1      N/A
#ISLAND CITY 4N N/A         63  50  62  CALM    29.96F
#LA GRANDE ELEM N/A         57  38  49  SW14G26 29.87S
#UNION 1S       N/A         63  40  43  NW7     29.72F
$$

ORZ050-042210-
WALLOWA COUNTY

CITY            SKY/WX      TMP DP  RH  WIND    PRES   REMARKS
#ENTERPRISE HS  N/A         57  42  57  W2      29.86F
#IMNAHA SCHOOL  N/A         68  43  40  N7      29.79F
#IMNAHA 10S     N/A         68  43  40  NE3     29.82F
#JOSEPH 3N      N/A         55  38  53  SW7     29.88F
#JOSEPH 3W      N/A         50  43  77  CALM    29.74F
#LOSTINE        N/A         61  37  41  CALM    29.60F
#MT HOWARD 8000 N/A         36  31  82  CALM    29.95S
#PROMISE 1S     N/A         59  32  36  W6      29.91F
#WALLOWA SCHOOL N/A         65  35  33  CALM    29.80F



$$



USA.gov is the U.S. government's official web portal to all federal, state and local government web resources and services.